CW1852 Weather Reports


Display with metric or nautical units.
time (UTC)temp
F
wind
direction
speed
MPH
gust
MPH
rain 1hr
in
rain 24hr
in
rain mn
in
humidity
%
barometer
mb
20260509082203 38 309 0.0 2.0 0.00 0.00 0.00 89 1012.9
20260509081203 38 309 1.0 1.0 0.00 0.00 0.00 89 1012.8
20260509080224 38 309 0.0 2.0 0.00 0.00 0.00 88 1012.7
20260509075203 38 309 1.0 3.0 0.00 0.00 0.00 88 1012.8
20260509074202 38 309 1.0 2.0 0.00 0.00 0.00 88 1012.7
20260509073224 39 310 0.0 1.0 0.00 0.00 0.00 88 1012.6
20260509072224 39 309 0.0 1.0 0.00 0.00 0.00 87 1012.5
20260509071203 39 310 0.0 0.0 0.00 0.00 0.00 87 1012.4
20260509070203 39 310 0.0 0.0 0.00 0.00 0.00 85 1012.4
20260509065203 39 310 0.0 0.0 0.00 0.00 0.00 86 1012.3
20260509064203 39 310 0.0 1.0 0.00 0.00 0.00 85 1012.2
20260509063224 39 310 0.0 0.0 0.00 0.00 0.00 87 1012.1
20260509062202 39 310 0.0 1.0 0.00 0.00 0.00 86 1011.9
20260509061203 40 309 0.0 2.0 0.00 0.00 0.00 87 1011.8
20260509060203 41 309 1.0 2.0 0.00 0.00 0.00 86 1011.7
20260509055224 41 309 1.0 2.0 0.00 0.00 0.00 86 1011.8
20260509054203 41 309 1.0 3.0 0.00 0.00 0.00 85 1011.9
20260509053202 41 309 1.0 3.0 0.00 0.00 0.00 85 1011.9
20260509052203 40 309 1.0 3.0 0.00 0.00 0.00 86 1011.9
20260509051202 40 309 0.0 3.0 0.00 0.00 0.00 86 1012.0
20260509050203 40 309 1.0 2.0 0.00 0.00 0.00 87 1011.9
20260509045203 40 309 1.0 2.0 0.00 0.00 0.00 88 1012.0
20260509044203 40 309 0.0 2.0 0.00 0.00 0.00 87 1011.9
20260509043203 40 309 1.0 2.0 0.00 0.00 0.00 88 1011.9
20260509042202 40 309 1.0 2.0 0.00 0.00 0.00 87 1011.7
20260509041203 39 309 1.0 2.0 0.00 0.00 0.00 88 1011.6
20260509040203 39 309 1.0 2.0 0.00 0.00 0.00 89 1011.5
20260509035202 39 309 1.0 2.0 0.00 0.00 0.00 88 1011.4
20260509034203 38 309 1.0 2.0 0.00 0.00 0.00 88 1011.3
20260509033202 39 309 1.0 2.0 0.00 0.00 0.00 87 1011.3
20260509032203 39 309 1.0 2.0 0.00 0.00 0.00 88 1011.2
20260509031203 39 309 1.0 2.0 0.00 0.00 0.00 86 1010.9
20260509025202 39 309 1.0 2.0 0.00 0.00 0.00 86 1010.8
20260509024203 40 309 1.0 3.0 0.00 0.00 0.00 86 1010.8
20260509023204 39 309 1.0 2.0 0.00 0.00 0.00 86 1010.6
20260509021203 40 309 1.0 2.0 0.00 0.00 0.00 84 1010.3
20260509020202 40 309 1.0 2.0 0.00 0.00 0.00 84 1010.1
20260509015203 41 309 1.0 2.0 0.00 0.00 0.00 85 1010.1
20260509014203 40 309 1.0 2.0 0.00 0.00 0.00 84 1010.0
20260509013203 41 309 0.0 2.0 0.00 0.00 0.00 82 1009.8
20260509012203 41 309 0.0 2.0 0.00 0.00 0.00 82 1009.7
20260509011202 41 309 1.0 2.0 0.00 0.00 0.00 82 1009.4
20260509010203 42 309 1.0 1.0 0.00 0.00 0.00 81 1009.2
20260509005203 42 309 0.0 1.0 0.00 0.00 0.00 81 1009.1
20260509004202 43 310 0.0 0.0 0.00 0.00 0.00 80 1008.9
20260509003224 43 310 0.0 1.0 0.00 0.00 0.00 76 1008.8
20260509002202 44 310 0.0 0.0 0.00 0.00 0.00 74 1008.6
20260509001203 45 310 0.0 0.0 0.00 0.00 0.00 71 1008.5
20260509000204 47 310 0.0 2.0 0.00 0.00 0.00 67 1008.5
20260508235225 48 309 0.0 4.0 0.00 0.00 0.00 62 1008.3
20260508234203 49 309 1.0 3.0 0.00 0.00 0.00 63 1008.2
20260508233203 50 310 1.0 5.0 0.00 0.00 0.00 58 1008.1
20260508232223 51 296 2.0 5.0 0.00 0.00 0.00 58 1008.0
20260508231203 52 333 1.0 6.0 0.00 0.00 0.00 56 1007.9
20260508230203 52 300 3.0 7.0 0.00 0.00 0.00 51 1007.7
20260508225203 53 249 4.0 9.0 0.00 0.00 0.00 52 1007.6
20260508224203 53 328 1.0 12.0 0.00 0.00 0.00 51 1007.6
20260508223224 54 8 2.0 9.0 0.00 0.00 0.00 50 1007.4
20260508222203 54 305 4.0 14.0 0.00 0.00 0.00 52 1007.4
20260508221203 54 308 3.0 14.0 0.00 0.00 0.00 50 1007.4
20260508220223 54 239 1.0 7.0 0.00 0.00 0.00 52 1007.2
20260508215203 54 346 2.0 4.0 0.00 0.00 0.00 54 1007.2
20260508214203 53 289 2.0 9.0 0.00 0.00 0.00 60 1007.2
20260508213224 53 201 2.0 9.0 0.00 0.00 0.00 63 1007.2
20260508212203 54 213 4.0 9.0 0.00 0.00 0.00 53 1007.0
20260508211202 55 267 2.0 7.0 0.00 0.00 0.00 49 1006.8
20260508210203 54 241 3.0 7.0 0.00 0.00 0.00 51 1006.7
20260508205202 53 242 4.0 14.0 0.00 0.00 0.00 54 1006.7
20260508204203 52 241 6.0 14.0 0.00 0.00 0.00 63 1006.6
20260508203203 53 220 2.0 7.0 0.00 0.00 0.00 66 1006.5
20260508202202 53 201 3.0 7.0 0.00 0.00 0.00 67 1006.3
20260508201203 52 246 2.0 5.0 0.00 0.00 0.00 70 1006.2
20260508200203 53 240 2.0 7.0 0.00 0.00 0.00 69 1006.2
20260508195202 52 196 4.0 10.0 0.00 0.00 0.00 66 1006.2
20260508194203 54 207 4.0 11.0 0.00 0.00 0.00 62 1006.2
20260508193202 54 187 2.0 6.0 0.00 0.00 0.00 60 1006.1
20260508192203 54 257 2.0 9.0 0.00 0.00 0.00 61 1006.1
20260508191202 54 225 4.0 10.0 0.00 0.00 0.00 61 1006.0
20260508190203 54 200 4.0 10.0 0.00 0.00 0.00 60 1006.0
20260508185203 55 193 6.0 11.0 0.00 0.00 0.00 60 1006.0
20260508184202 54 196 3.0 13.0 0.00 0.00 0.00 66 1006.0
20260508183203 53 202 6.0 12.0 0.00 0.00 0.00 65 1006.2
20260508182245 52 217 6.0 10.0 0.00 0.00 0.00 68 1006.3
20260508181202 52 204 5.0 10.0 0.00 0.00 0.00 68 1006.2
20260508180224 52 260 5.0 12.0 0.00 0.00 0.00 65 1006.1
20260508175224 53 224 4.0 10.0 0.00 0.00 0.00 59 1006.0
20260508174203 53 206 7.0 12.0 0.00 0.00 0.00 60 1005.9
20260508173203 53 227 3.0 13.0 0.00 0.00 0.00 60 1006.0
20260508172202 54 196 3.0 10.0 0.00 0.00 0.00 58 1005.8
20260508171204 55 201 6.0 10.0 0.00 0.00 0.00 56 1005.7
20260508170244 56 203 6.0 9.0 0.00 0.00 0.00 57 1005.8
20260508165224 55 225 3.0 9.0 0.00 0.00 0.00 57 1005.8
20260508164203 54 197 3.0 9.0 0.00 0.00 0.00 61 1005.8
20260508163224 56 221 4.0 11.0 0.00 0.00 0.00 41 1005.7
20260508162203 57 324 5.0 12.0 0.00 0.00 0.00 40 1005.7
20260508161202 57 299 5.0 11.0 0.00 0.00 0.00 38 1005.6
20260508160203 57 229 4.0 11.0 0.00 0.00 0.00 48 1005.6
20260508155202 57 240 5.0 12.0 0.00 0.00 0.00 45 1005.8
20260508154224 56 340 3.0 10.0 0.00 0.00 0.00 43 1005.8
20260508153203 57 235 4.0 14.0 0.00 0.00 0.00 43 1005.9
20260508152224 56 352 5.0 12.0 0.00 0.00 0.00 42 1005.8
20260508151203 55 338 4.0 9.0 0.00 0.00 0.00 45 1006.0
20260508150202 59 268 7.0 12.0 0.00 0.00 0.00 47 1006.1
20260508145203 57 216 3.0 13.0 0.00 0.00 0.00 46 1006.0
20260508144203 59 284 5.0 13.0 0.00 0.00 0.00 52 1006.1
20260508143202 57 295 7.0 14.0 0.00 0.00 0.00 47 1006.2
20260508142203 57 281 8.0 14.0 0.00 0.00 0.00 43 1006.3
20260508141202 57 292 8.0 17.0 0.00 0.00 0.00 44 1006.3
20260508140203 57 278 7.0 18.0 0.00 0.00 0.00 46 1006.3
20260508135203 57 296 4.0 13.0 0.00 0.00 0.00 47 1006.5
20260508134202 57 279 4.0 15.0 0.00 0.00 0.00 48 1006.4
20260508133203 57 240 5.0 15.0 0.00 0.00 0.00 48 1006.4
20260508132204 56 254 6.0 12.0 0.00 0.00 0.00 48 1006.5
20260508131203 56 262 3.0 9.0 0.00 0.00 0.00 52 1006.5
20260508130225 55 286 4.0 11.0 0.00 0.00 0.00 52 1006.4
20260508125203 54 296 2.0 10.0 0.00 0.00 0.00 55 1006.5
20260508124203 53 325 2.0 13.0 0.00 0.00 0.00 53 1006.6
20260508123202 53 313 6.0 13.0 0.00 0.00 0.00 55 1006.6
20260508122203 52 324 5.0 12.0 0.00 0.00 0.00 54 1006.6
20260508121202 50 318 3.0 11.0 0.00 0.00 0.00 57 1006.6
20260508120203 49 309 5.0 10.0 0.00 0.00 0.00 60 1006.7
20260508115202 48 307 3.0 10.0 0.00 0.00 0.00 61 1006.8
20260508114203 48 299 4.0 9.0 0.00 0.00 0.00 64 1006.8
20260508113203 47 300 3.0 8.0 0.00 0.00 0.00 62 1006.7
20260508112202 47 334 4.0 9.0 0.00 0.00 0.00 62 1006.7
20260508111225 46 290 3.0 9.0 0.00 0.00 0.00 64 1006.7
20260508110202 45 277 3.0 9.0 0.00 0.00 0.00 66 1006.7
20260508105203 44 254 2.0 7.0 0.00 0.00 0.00 69 1006.6
20260508104203 42 255 1.0 4.0 0.00 0.00 0.00 75 1006.5
20260508103203 41 268 2.0 6.0 0.00 0.00 0.00 77 1006.5
20260508102203 40 296 0.0 3.0 0.00 0.00 0.00 84 1006.4
20260508101202 38 296 0.0 3.0 0.00 0.00 0.00 87 1006.3
20260508100203 37 296 0.0 2.0 0.00 0.00 0.00 87 1006.1
20260508095203 36 297 0.0 3.0 0.00 0.00 0.00 85 1006.0
20260508094203 36 296 0.0 1.0 0.00 0.00 0.00 83 1005.8
20260508093224 36 297 0.0 0.0 0.00 0.00 0.00 82 1005.6
20260508092202 37 297 0.0 2.0 0.00 0.01 0.00 82 1005.4
20260508091224 38 296 1.0 2.0 0.00 0.01 0.00 79 1005.3
20260508090203 38 296 0.0 2.0 0.00 0.01 0.00 78 1005.1
20260508085202 38 296 1.0 2.0 0.00 0.01 0.00 80 1005.1
20260508084224 37 296 0.0 3.0 0.00 0.01 0.00 83 1005.0
20260508083203 37 296 0.0 2.0 0.00 0.01 0.00 82 1004.9